Location: Estherville
(43.4020°N, 94.8330°W)
Time: 10:12:21
(UTC-05:00)

N. Korean satellite - Visible Passes

Search period start: 14 October 2019 00:00
Search period end: 24 October 2019 00:00
Orbit: 455 x 508 km, 97.2° (Epoch: 14 October)

Date Brightness Start Highest point End Pass type
(mag) Time Alt. Az. Time Alt. Az. Time Alt. Az.
14 Oct 9.8 19:16:06 10° SW 19:18:37 19° W 19:21:10 10° NW visible
15 Oct 9.1 06:40:23 10° NE 06:43:29 27° E 06:46:36 10° SSE visible
16 Oct 10.1 06:16:06 10° ENE 06:18:02 14° E 06:19:59 10° SE visible
17 Oct 10.3 19:34:57 10° WSW 19:36:16 12° W 19:37:35 10° WNW visible
18 Oct 7.9 06:57:34 10° NNE 07:01:03 45° E 07:04:34 10° S visible
18 Oct 9.3 19:07:58 10° SSW 19:10:47 24° W 19:13:37 10° NW visible
19 Oct 9.5 06:32:45 10° NE 06:35:40 22° E 06:38:35 10° SSE visible
20 Oct 10.4 06:08:54 10° ENE 06:10:11 11° E 06:11:27 10° ESE visible
21 Oct 10.0 19:26:23 10° SW 19:28:22 15° W 19:30:22 10° WNW visible
22 Oct 8.4 06:49:49 10° NNE 06:53:13 37° E 06:56:39 10° SSE visible
22 Oct 8.9 18:59:51 10° SSW 19:02:53 29° W 19:05:58 10° NNW visible
23 Oct 9.8 06:25:09 10° NE 06:27:48 19° E 06:30:27 10° SE visible
